Memphis, TN

8:26 AM CST on December 04, 2016 (GMT -0600)
Memphis International

Weather History for KMEM - April, 2013

Change the Weather History Date:

Saturday, April 13, 2013

  Actual Average Record
Temperature  
Mean Temperature 60 °F 62 °F  
Max Temperature 74 °F 72 °F 87 °F (1887)
Min Temperature 46 °F 52 °F 31 °F (1940)
Degree Days  
Heating Degree Days 5 5  
Month to date heating degree days 103 82  
Since 1 July heating degree days 2807 2890  
Cooling Degree Days 0 2  
Month to date cooling degree days 27 24  
Year to date cooling degree days 38 44  
Growing Degree Days 10 (Base 50)    
Moisture  
Dew Point 39 °F    
Average Humidity 50    
Maximum Humidity 71    
Minimum Humidity 29    
Precipitation  
Precipitation 0.00 in 0.19 in 2.79 in (1987)
Month to date precipitation 3.50 2.31  
Year to date precipitation 20.45 15.84  
Snow  
Snow 0.00 in 0.00 in - ()
Month to date snowfall 0.0 0.0  
Since 1 July snowfall 0.9 3.8  
Snow Depth 0.00 in    
Sea Level Pressure  
Sea Level Pressure 30.02 in    
Wind  
Wind Speed 4 mph (East)    
Max Wind Speed 13 mph    
Max Gust Speed 17 mph    
Visibility 10 miles    
Events      
T = Trace of Precipitation, MM = Missing Value Source: NWS Daily Summary

Daily Weather History Graph

Daily Weather History Graph

Search for Another Location

Airport or City:

Trip Planner

Search our weather history database for the weather conditions in past years. The results will help you decide how hot, cold, wet, or windy it might be!

Date:

Astronomy

Apr. 13, 2013 Rise Set
Actual Time 6:30 AM CDT 7:31 PM CDT
Civil Twilight 6:04 AM CDT 7:57 PM CDT
Nautical Twilight 5:33 AM CDT 8:28 PM CDT
Astronomical Twilight 5:01 AM CDT 9:00 PM CDT
Moon 8:27 AM CDT (4/13) 10:48 PM CDT (4/13)
Length of Visible Light 13h 52m
Length of Day
13h 00m
Waxing Crescent, 10% of the Moon is Illuminated
Apr 13
Waxing Crescent
Apr 18
First Quarter
Apr 25
Full
May 2
Last Quarter
May 9
New

Hourly Weather History & Observations

Time (CDT) Temp. Windchill Dew Point Humidity Pressure Visibility Wind Dir Wind Speed Gust Speed Precip Events Conditions
12:54 AM 55.0 °F - 39.9 °F 57% 30.01 in 10.0 mi Calm Calm - N/A   Clear
1:54 AM 54.0 °F - 37.0 °F 53% 30.03 in 10.0 mi North 3.5 mph - N/A   Clear
2:54 AM 52.0 °F - 37.0 °F 57% 30.02 in 10.0 mi Calm Calm - N/A   Clear
3:54 AM 51.1 °F - 37.9 °F 61% 30.03 in 10.0 mi NE 8.1 mph - N/A   Clear
4:54 AM 48.0 °F - 37.9 °F 68% 30.04 in 10.0 mi ENE 9.2 mph - N/A   Clear
5:54 AM 46.0 °F 41.9 °F 37.9 °F 73% 30.05 in 10.0 mi ENE 8.1 mph - N/A   Partly Cloudy
6:54 AM 46.0 °F 42.5 °F 37.0 °F 71% 30.09 in 10.0 mi ENE 6.9 mph - N/A   Partly Cloudy
7:54 AM 48.0 °F - 37.9 °F 68% 30.10 in 10.0 mi East 8.1 mph - N/A   Partly Cloudy
8:54 AM 51.1 °F - 39.0 °F 63% 30.10 in 10.0 mi East 4.6 mph - N/A   Partly Cloudy
9:54 AM 55.0 °F - 39.0 °F 55% 30.11 in 10.0 mi Variable 4.6 mph - N/A   Partly Cloudy
10:54 AM 60.1 °F - 39.0 °F 46% 30.10 in 10.0 mi ENE 5.8 mph - N/A   Scattered Clouds
11:54 AM 62.1 °F - 39.0 °F 43% 30.09 in 10.0 mi Calm Calm - N/A   Scattered Clouds
12:54 PM 66.9 °F - 39.0 °F 36% 30.05 in 10.0 mi NNE 3.5 mph - N/A   Scattered Clouds
1:54 PM 70.0 °F - 39.0 °F 32% 30.04 in 10.0 mi Variable 3.5 mph - N/A   Scattered Clouds
2:54 PM 72.0 °F - 39.9 °F 31% 30.01 in 10.0 mi Variable 3.5 mph - N/A   Scattered Clouds
3:54 PM 73.0 °F - 39.9 °F 30% 29.99 in 10.0 mi Calm Calm - N/A   Scattered Clouds
4:54 PM 73.0 °F - 41.0 °F 31% 29.97 in 10.0 mi Calm Calm - N/A   Scattered Clouds
5:54 PM 73.0 °F - 39.9 °F 30% 29.94 in 10.0 mi Variable 3.5 mph - N/A   Scattered Clouds
6:54 PM 71.1 °F - 39.0 °F 31% 29.94 in 10.0 mi SSE 5.8 mph - N/A   Scattered Clouds
7:54 PM 69.1 °F - 39.0 °F 33% 29.94 in 10.0 mi SE 5.8 mph - N/A   Scattered Clouds
8:54 PM 66.9 °F - 39.9 °F 37% 29.94 in 10.0 mi SE 4.6 mph - N/A   Scattered Clouds
9:54 PM 64.9 °F - 42.1 °F 43% 29.93 in 10.0 mi ESE 4.6 mph - N/A   Partly Cloudy
10:54 PM 64.0 °F - 42.1 °F 45% 29.92 in 10.0 mi ESE 3.5 mph - N/A   Scattered Clouds
11:54 PM 62.1 °F - 44.1 °F 52% 29.92 in 10.0 mi SSE 4.6 mph - N/A   Partly Cloudy